GPS BIIF-7 (PRN 09)

Last updated on Sat Nov 15 2025 00:03:18 GMT+0000 (Coordinated Universal Time)

1 40105U 14045A 25318.16354177 .00000030 00000+0 00000+0 0 9998 2 40105 55.2117 97.0388 0033210 119.0355 241.2862 2.00570773 81769
UTC large
Height (km)
Speed (km/s)
/
Latitude / Longitude
Inclination (degrees)
Orbital Period (minutes)
Azimuth
Elevation
Range (km)
Doppler Factor

Next 0 passes for location: London (51.5072 / 0.1276)

Sorry there are no passes over London.